Minot AFB, ND

2:35 PM CDT on October 18, 2017 (GMT -0500)
Minot Air Force Base

Weather History for KMIB - October, 2012

Change the Weather History Date:

Thursday, October 25, 2012

  Actual Average Record
Temperature  
Mean Temperature 32 °F -  
Max Temperature 34 °F 46 °F 64 °F (2007)
Min Temperature 30 °F 26 °F 8 °F (1997)
Degree Days  
Heating Degree Days 33    
Moisture  
Dew Point 23 °F    
Average Humidity 68    
Maximum Humidity 80    
Minimum Humidity 61    
Precipitation  
Precipitation 0.00 in - - ()
Sea Level Pressure  
Sea Level Pressure 30.15 in    
Wind  
Wind Speed 21 mph (WNW)    
Max Wind Speed 32 mph    
Max Gust Speed 39 mph    
Visibility 10 miles    
Events Rain    
Averages and records for this station are not official NWS values.
T = Trace of Precipitation, MM = Missing Value Source: NWS Daily Summary

Daily Weather History Graph

Daily Weather History Graph

Search for Another Location

Airport or City:

Trip Planner

Search our weather history database for the weather conditions in past years. The results will help you decide how hot, cold, wet, or windy it might be!

Date:

Astronomy

Oct. 25, 2012 Rise Set
Actual Time 8:21 AM CDT 6:36 PM CDT
Civil Twilight 7:49 AM CDT 7:09 PM CDT
Nautical Twilight 7:12 AM CDT 7:45 PM CDT
Astronomical Twilight 6:36 AM CDT 8:21 PM CDT
Moon 4:38 PM CDT (10/25) 4:02 AM CDT (10/25)
Length of Visible Light 11h 20m
Length of Day
10h 15m
Waxing Gibbous, 84% of the Moon is Illuminated
Oct 25
Waxing Gibbous
Oct 29
Full
Nov 6
Last Quarter
Nov 13
New
Nov 20
First Quarter

Hourly Weather History & Observations

Time (CDT) Temp. Windchill Dew Point Humidity Pressure Visibility Wind Dir Wind Speed Gust Speed Precip Events Conditions
12:55 AM 32.5 °F 21.2 °F 23.7 °F 70% 30.10 in 10.0 mi WNW 18.4 mph 24.2 mph N/A   Overcast
1:39 AM 32.0 °F 21.6 °F 23.0 °F 69% 30.12 in 10.0 mi West 15.0 mph - N/A   Overcast
1:46 AM 32.0 °F 21.2 °F 23.0 °F 69% 30.11 in 10.0 mi West 16.1 mph - N/A   Overcast
1:47 AM 32.0 °F 21.2 °F 23.0 °F 69% 30.11 in 10.0 mi West 16.1 mph - N/A   Overcast
1:49 AM 32.0 °F 21.6 °F 24.8 °F 75% 30.11 in 10.0 mi West 15.0 mph - N/A   Overcast
1:55 AM 31.8 °F 21.8 °F 24.3 °F 74% 30.11 in 10.0 mi West 13.8 mph - N/A   Overcast
2:23 AM 32.0 °F 20.8 °F 23.0 °F 69% 30.10 in 10.0 mi WNW 17.3 mph 25.3 mph N/A   Scattered Clouds
2:55 AM 30.7 °F 18.5 °F 23.7 °F 75% 30.09 in 10.0 mi WNW 19.6 mph 26.5 mph N/A   Scattered Clouds
3:17 AM 30.2 °F 16.8 °F 24.8 °F 80% 30.08 in 10.0 mi WNW 23.0 mph 28.8 mph N/A   Overcast
3:55 AM 32.2 °F 18.9 °F 23.7 °F 71% 30.07 in 10.0 mi WNW 25.3 mph 35.7 mph N/A   Overcast
4:55 AM 31.8 °F 18.4 °F 23.7 °F 72% 30.09 in 10.0 mi WNW 25.3 mph 33.4 mph N/A   Overcast
5:55 AM 32.0 °F 18.9 °F 23.9 °F 72% 30.09 in 10.0 mi WNW 24.2 mph 31.1 mph N/A   Overcast
6:55 AM 31.6 °F 19.7 °F 23.5 °F 72% 30.12 in 10.0 mi WNW 19.6 mph 27.6 mph N/A   Overcast
7:55 AM 32.2 °F 20.7 °F 24.1 °F 72% 30.12 in 10.0 mi WNW 18.4 mph 28.8 mph N/A   Overcast
7:59 AM 32.0 °F 19.8 °F 24.8 °F 75% 30.12 in 10.0 mi WNW 20.7 mph 28.8 mph N/A   Overcast
8:05 AM 32.0 °F 20.1 °F 24.8 °F 75% 30.12 in 10.0 mi WNW 19.6 mph 28.8 mph N/A   Overcast
8:55 AM 32.2 °F 20.0 °F 24.3 °F 73% 30.12 in 10.0 mi WNW 20.7 mph - N/A   Overcast
9:20 AM 32.0 °F 19.5 °F 24.8 °F 75% 30.12 in 10.0 mi WNW 21.9 mph 29.9 mph N/A   Overcast
9:29 AM 32.0 °F 19.2 °F 24.8 °F 75% 30.12 in 10.0 mi WNW 23.0 mph 29.9 mph N/A   Overcast
9:55 AM 32.7 °F 20.7 °F 23.9 °F 70% 30.12 in 10.0 mi WNW 20.7 mph - N/A   Overcast
10:39 AM 33.8 °F 21.9 °F 23.0 °F 65% 30.13 in 10.0 mi WNW 21.9 mph 31.1 mph N/A   Overcast
10:55 AM 32.9 °F 20.7 °F 23.7 °F 69% 30.13 in 10.0 mi WNW 21.9 mph 32.2 mph N/A   Overcast
11:55 AM 33.6 °F 20.3 °F 22.8 °F 65% 30.13 in 10.0 mi WNW 27.6 mph 36.8 mph N/A   Overcast
11:58 AM 33.8 °F 21.0 °F 23.0 °F 65% 30.13 in 10.0 mi WNW 25.3 mph 36.8 mph N/A   Overcast
12:02 PM 33.8 °F 20.1 °F 23.0 °F 65% 30.12 in 10.0 mi WNW 29.9 mph 34.5 mph N/A   Overcast
12:10 PM 33.8 °F 20.8 °F 23.0 °F 65% 30.13 in 10.0 mi WNW 26.5 mph 39.1 mph N/A   Overcast
12:11 PM 33.8 °F 21.3 °F 23.0 °F 65% 30.13 in 10.0 mi WNW 24.2 mph 39.1 mph N/A   Overcast
12:19 PM 33.8 °F 19.6 °F 23.0 °F 65% 30.13 in 10.0 mi WNW 32.2 mph 36.8 mph N/A   Overcast
12:25 PM 33.8 °F 20.5 °F 23.0 °F 65% 30.13 in 10.0 mi NW 27.6 mph 36.8 mph N/A   Overcast
12:26 PM 33.8 °F 20.8 °F 23.0 °F 65% 30.14 in 10.0 mi WNW 26.5 mph 36.8 mph N/A   Overcast
12:27 PM 33.8 °F 21.3 °F 23.0 °F 65% 30.14 in 10.0 mi WNW 24.2 mph 35.7 mph N/A   Overcast
12:55 PM 33.3 °F 20.6 °F 23.9 °F 69% 30.14 in 10.0 mi WNW 24.2 mph 33.4 mph 0.00 in   Overcast
1:38 PM 33.8 °F 20.3 °F 24.8 °F 70% 30.13 in 10.0 mi NW 28.8 mph 36.8 mph N/A   Overcast
1:41 PM 33.8 °F 20.3 °F 24.8 °F 70% 30.13 in 10.0 mi NW 28.8 mph 36.8 mph N/A   Overcast
1:55 PM 33.4 °F 20.3 °F 24.4 °F 70% 30.14 in 10.0 mi WNW 26.5 mph 32.2 mph 0.00 in Rain Light Rain
2:46 PM 33.8 °F 20.8 °F 23.0 °F 65% 30.14 in 10.0 mi NW 26.5 mph 38.0 mph N/A   Overcast
2:47 PM 33.8 °F 20.5 °F 23.0 °F 65% 30.14 in 10.0 mi WNW 27.6 mph 38.0 mph N/A   Overcast
2:52 PM 33.8 °F 20.1 °F 23.0 °F 65% 30.14 in 10.0 mi NW 29.9 mph 34.5 mph N/A   Overcast
2:53 PM 33.8 °F 20.1 °F 23.0 °F 65% 30.14 in 10.0 mi WNW 29.9 mph 38.0 mph N/A   Overcast
2:55 PM 33.8 °F 20.8 °F 23.5 °F 66% 30.14 in 10.0 mi WNW 26.5 mph 38.0 mph 0.00 in   Overcast
3:07 PM 33.8 °F 21.0 °F 24.8 °F 70% 30.14 in 10.0 mi NW 25.3 mph 36.8 mph N/A   Overcast
3:09 PM 33.8 °F 21.6 °F 24.8 °F 70% 30.14 in 10.0 mi WNW 23.0 mph 36.8 mph N/A   Overcast
3:10 PM 33.8 °F 21.9 °F 24.8 °F 70% 30.14 in 10.0 mi WNW 21.9 mph 35.7 mph N/A   Overcast
3:55 PM 34.0 °F 21.0 °F 22.6 °F 63% 30.14 in 10.0 mi WNW 26.5 mph 38.0 mph N/A   Overcast
4:55 PM 33.8 °F 20.1 °F 21.9 °F 62% 30.17 in 10.0 mi WNW 29.9 mph 38.0 mph N/A   Overcast
5:55 PM 33.3 °F 20.3 °F 22.6 °F 65% 30.19 in 10.0 mi WNW 25.3 mph 32.2 mph N/A   Overcast
6:55 PM 32.7 °F 19.6 °F 22.1 °F 65% 30.20 in 10.0 mi WNW 25.3 mph 32.2 mph N/A   Overcast
7:55 PM 32.4 °F 19.1 °F 21.2 °F 63% 30.23 in 10.0 mi WNW 25.3 mph 34.5 mph N/A   Overcast
8:55 PM 32.0 °F 19.2 °F 21.4 °F 65% 30.24 in 10.0 mi WNW 23.0 mph 28.8 mph N/A   Overcast
9:55 PM 32.4 °F 20.3 °F 20.1 °F 61% 30.25 in 10.0 mi WNW 20.7 mph 29.9 mph N/A   Overcast
10:55 PM 32.0 °F 19.8 °F 22.3 °F 67% 30.27 in 10.0 mi WNW 20.7 mph 29.9 mph N/A   Overcast
11:14 PM 32.0 °F 20.1 °F 23.0 °F 69% 30.27 in 10.0 mi WNW 19.6 mph 26.5 mph N/A   Overcast
11:20 PM 32.0 °F 19.8 °F 23.0 °F 69% 30.27 in 10.0 mi WNW 20.7 mph 26.5 mph N/A   Overcast
11:31 PM 32.0 °F 20.5 °F 21.2 °F 64% 30.27 in 10.0 mi WNW 18.4 mph - N/A   Overcast
11:37 PM 32.0 °F 18.9 °F 21.2 °F 64% 30.27 in 10.0 mi WNW 24.2 mph 28.8 mph N/A   Overcast
11:55 PM 31.6 °F 20.7 °F 21.6 °F 66% 30.27 in 10.0 mi WNW 16.1 mph - N/A   Overcast